Regional Weather Roundup
Issued by NWS

Home | Current Version | Previous Version | Text Only | Print | Product List | Glossary Off
Versions: 1 2 3 4 5 6 7 8 9 10 11 12 13 14 15 16 17 18 19 20 21 22 23 24 25 26 27 28 29 30 31 32 33 34 35 36 37 38 39 40 41 42 43 44 45 46 47 48 49 50

000
ASUS43 KMPX 271910
RWRMN
WEATHER ROUNDUP FOR MINNESOTA
NATIONAL WEATHER SERVICE TWIN CITIES/CHANHASSEN MN
200 PM CDT WED MAY 27 2015


NOTE: "FAIR" INDICATES FEW OR NO CLOUDS BELOW 12,000 FEET WITH NO
SIGNIFICANT WEATHER AND/OR OBSTRUCTIONS TO VISIBILITY. N/A MEANS
CURRENT SKY AND/OR WEATHER CONDITIONS ARE NOT AVAILABLE.

MNZ060>063-068>070-272000-
   Twin Cities Metro

CITY           SKY/WX    TMP DP  RH WIND       PRES   REMARKS
TWIN CITIES    SUNNY     80  57  45 SW9       29.95S
ST PAUL        SUNNY     78  58  49 SW12      29.95S
CRYSTAL        SUNNY     79  58  48 SW12      29.93S
BLAINE         SUNNY     81  57  44 SW9       29.95R
LAKEVILLE      SUNNY     75  61  60 W10       29.97R
EDEN PRAIRIE   SUNNY     79  59  50 SW14      29.95S
SOUTH ST PAUL  SUNNY     78  57  47 W9G16     29.95S
LAKE ELMO      FAIR      77  59  53 W10       29.97R
$$
MNZ001>005-007-008-013>017-022>024-027-028-272000-
   Northwest Minnesota

CITY           SKY/WX    TMP DP  RH WIND       PRES   REMARKS
BEMIDJI        SUNNY     77  48  35 W14       29.95R
HALLOCK        SUNNY     70  46  43 N10       29.98R
ROSEAU         SUNNY     73  48  40 N3        29.96R
WARROAD        SUNNY     70  52  52 NW10      29.97R
THIEF RVR FALL SUNNY     73  52  46 N13       29.97R
CROOKSTON      SUNNY     73  50  43 N7        29.97S
FOSSTON        SUNNY     75  50  41 CALM      29.96S
DETROIT LAKES  SUNNY     77  46  33 NW10      29.97S
MOORHEAD       SUNNY     77  52  41 N6        29.97R
PARK RAPIDS    SUNNY     82  45  27 VRB7      29.94S
MAHNOMEN       FAIR      77  48  36 NW8G16    29.96R
$$
MNZ006-009>011-018-025>026-272000-
   North Central Minnesota

CITY           SKY/WX    TMP DP  RH WIND       PRES   REMARKS
BAUDETTE       SUNNY     68  48  48 N14       29.96R
FLAG ISLAND    SUNNY     64  46  52 N9        29.96R
INTL FALLS     MOSUNNY   77  50  38 NW13      29.91R
WASKISH        SUNNY     72  55  56 SW9       29.94S
BIG FORK       SUNNY    N/A N/A N/A W9        29.92R
LONGVILLE      SUNNY     77  46  33 NW7       29.94S
GRAND RAPIDS   SUNNY     77  48  36 NW9G20    29.93R
CRANE LAKE     SUNNY     75  48  38 NW6       29.90R
ORR            MOSUNNY   79  45  29 NW9G18    29.87S
COOK           MOSUNNY   79  48  34 W13G20    29.90R
WALKER         FAIR      77  48  36 NW6       29.94R
$$
MNZ012-019>021-037-272000-
   Northeast Minnesota

CITY           SKY/WX    TMP DP  RH WIND       PRES   REMARKS
DULUTH         MOSUNNY   81  50  33 W10G25    29.89R
HIBBING        MOSUNNY   80  46  30 NW12      29.89S
EVELETH        SUNNY     79  45  29 W12       29.90S
DULUTH HARBOR  SUNNY     81  54  39 W12       29.86S
TWO HARBORS    SUNNY     84  55  37 W6        29.84R
SILVER BAY     MOSUNNY   82  45  26 W10       29.83R
G MARAIS ARPRT SUNNY     77  45  31 W8        29.86R
$$
MNZ029>031-032-039>041-046>048-054>057-064-272000-
   West Central Minnesota

CITY           SKY/WX    TMP DP  RH WIND       PRES   REMARKS
FERGUS FALLS   SUNNY     79  54  41 NW6       29.96S
WHEATON        SUNNY     79  52  38 NW5       29.99R
MORRIS         SUNNY     82  54  36 NW10      29.96S
ALEXANDRIA     SUNNY     79  53  40 NW7       29.98R
ELBOW LAKE     FAIR      77  55  46 N9        29.97R
WADENA         SUNNY     79  52  38 NW9       29.96R
GLENWOOD       SUNNY     81  50  34 NW12      29.98R
APPLETON       SUNNY     82  46  28 W7        29.97S
BENSON         SUNNY     82  45  26 N10       29.97S
ORTONVILLE     SUNNY     81  46  30 NW6       29.98S
MADISON        SUNNY     81  48  32 NW7       29.98S
WILLMAR          N/A     82  52  34 NW10      29.98R
$$
MNZ033>034-036-042>043-049>051-058-059-272000-
   Central Minnesota

CITY           SKY/WX    TMP DP  RH WIND       PRES   REMARKS
ST CLOUD       SUNNY     80  55  42 NW7       29.94R
SAUK CENTRE    FAIR      79  54  41 W5        29.96R
PAYNESVILLE    SUNNY     77  52  42 W7        29.97R
AITKIN         SUNNY     82  48  30 NW7       29.92R
PINE RIVER     SUNNY     79  52  38 N6        29.97S
BRAINERD       SUNNY     79  51  37 W8        29.94R
STAPLES        SUNNY     81  48  32 N6        29.95R
LONG PRAIRIE   FAIR      79  50  36 W3        29.97R
LITTLE FALLS   SUNNY     79  46  31 W3        29.95R
LITCHFIELD     SUNNY     82  48  30 NW8       29.96S
BUFFALO        SUNNY     79  59  50 SW6       29.96S
MAPLE LAKE     SUNNY     80  59  49 W6        29.96R
$$
MNZ037-044-045-052-053-272000-
   East Central Minnesota

CITY           SKY/WX    TMP DP  RH WIND       PRES   REMARKS
PRINCETON      SUNNY     82  54  36 W9        29.94R
MORA           SUNNY     77  54  44 W3        29.94R
CAMBRIDGE      SUNNY     82  61  47 W9        29.92S
RUSH CITY      SUNNY     78  58  48 SW6       29.93S
MOOSE LAKE     SUNNY     79  59  50 W8        29.89S
HINCKLEY       FAIR      79  59  50 W7        29.92S
CLOQUET        SUNNY     81  43  26 NW8G20    29.90S
MCGREGOR       SUNNY     77  54  44 SW6       29.92S
$$
MNZ071>073-080-081-089-090-097-098-272000-
   Southwest Minnesota

CITY           SKY/WX    TMP DP  RH WIND       PRES   REMARKS
MONTEVIDEO     SUNNY     82  52  34 N8        29.98S
GRANITE FALLS  SUNNY     82  49  30 W8        29.99S
CANBY          SUNNY     81  51  35 NW8       30.00S
MARSHALL       SUNNY     81  48  32 N12       29.98F
REDWOOD FALLS  SUNNY     82  54  37 W8        29.97S
OLIVIA         SUNNY     77  50  38 NW6       29.97S
PIPESTONE      SUNNY     81  43  26 NW9       30.03R
WINDOM         SUNNY     81  52  36 W8        30.01S
WORTHINGTON    SUNNY     81  46  30 W8        30.02S
JACKSON        SUNNY     81  52  36 W12G18    30.02S
TRACY          SUNNY     82  50  32 NW6       30.00S
SLAYTON        SUNNY     80  48  32 W8        30.03R
$$
MNZ065>067-074>077-082>085-091>093-272000-
   South Central Minnesota

CITY           SKY/WX    TMP DP  RH WIND       PRES   REMARKS
MANKATO        SUNNY     77  57  50 W10       29.99S
NEW ULM        SUNNY     79  57  47 W8        29.98S
ST JAMES       SUNNY     82  57  42 W9        30.00S
FAIRMONT       SUNNY     81  52  36 W12       30.00S
GLENCOE        SUNNY     79  63  58 W7        29.96S
FARIBAULT      SUNNY     77  61  57 SW10      29.99S
OWATONNA       SUNNY     77  59  53 W14       30.00R
WASECA         SUNNY     77  61  57 SW13      30.01S
ALBERT LEA     SUNNY     77  59  53 SW8       30.00S
$$
MNZ078>079-086>088-094>096-272000-
   Southeast Minnesota

CITY           SKY/WX    TMP DP  RH WIND       PRES   REMARKS
ROCHESTER      SUNNY     76  61  59 W15       30.01R
RED WING       SUNNY     79  57  47 SW7       29.95S
STANTON        SUNNY     78  60  53 W10       29.96S
DODGE CENTER   SUNNY     77  57  50 SW10      30.00S
WINONA         SUNNY     77  57  50 W8        29.98S
AUSTIN         SUNNY     75  61  60 SW10G16   30.01R
PRESTON        SUNNY     74  59  58 SW14      30.02S
$$
ABBREVIATIONS USED IN REMARKS
   TC - TEMPERATURES IN CELSIUS
  WCI - WIND CHILL INDEX
   HX - HEAT INDEX
  VSB - VISIBILITY
$$



USA.gov is the U.S. government's official web portal to all federal, state and local government web resources and services.